User: anonymous   Login
Location: Unspecified
(0.0000°N, 0.0000°E)
Time: 09:34:50
(UTC+00:00)
Language:

APRIZESAT 5 - Orbit

View from above orbital plane
View from above orbital plane
View from above satellite
View from above satellite

Ground track
Ground track

The orbit data is extracted from the following two-line orbital elements,

1 37792U 11044E   19047.93839122 +.00000034 +00000-0 +13548-4 0  9998
2 37792 098.4067 222.3243 0057046 272.3366 087.1311 14.75294749403610
Epoch (UTC): 16 February 2019 22:31:17
Eccentricity: 0.0057046
inclination: 98.4067°
perigee height: 604 km
apogee height: 684 km
right ascension of ascending node: 222.3243°
argument of perigee: 272.3366°
revolutions per day: 14.75294749
mean anomaly at epoch: 87.1311°
orbit number at epoch: 40361

The dashed part of the orbit path shows where the satellite is in the earth's shadow,  

DLR